KQA415 HUEN-HKJK

Flight info

Callsign KQA415
Flight time 0h 47m
Altitude 31000
Route PASAN2B PASAN UL433 NAKAT NAKAT3C
Aircraft B738/M-SDE2E3FGHIRWXY/LB1

Departure

Time 2026-04-26 13:31
Airport Entebbe International Airport (HUEN)

Arrival

Time 2026-04-26 14:18
Airport Jomo Kenyatta International Airport (HKJK)
Time Latitude Longitude Altitude Speed Heading
2026-04-26 12:54 0.04294 32.44230 3783 ft 0 kts 82°
2026-04-26 13:21 0.04294 32.44226 3779 ft 3 kts 82°
2026-04-26 13:21 0.04290 32.44200 3779 ft 4 kts 82°
2026-04-26 13:22 0.04287 32.44175 3781 ft 2 kts 82°
2026-04-26 13:22 0.04281 32.44154 3782 ft 4 kts 41°
2026-04-26 13:22 0.04258 32.44145 3781 ft 4 kts 357°
2026-04-26 13:22 0.04246 32.44146 3779 ft 0 kts 352°
2026-04-26 13:25 0.04252 32.44145 3779 ft 3 kts 345°
2026-04-26 13:25 0.04307 32.44130 3782 ft 11 kts 351°
2026-04-26 13:25 0.04386 32.44118 3784 ft 12 kts 351°
2026-04-26 13:26 0.04464 32.44108 3779 ft 11 kts 352°
2026-04-26 13:26 0.04537 32.44098 3779 ft 10 kts 352°
2026-04-26 13:26 0.04607 32.44088 3783 ft 10 kts 352°
2026-04-26 13:26 0.04675 32.44079 3784 ft 10 kts 352°
2026-04-26 13:27 0.04739 32.44070 3779 ft 9 kts 352°
2026-04-26 13:27 0.04803 32.44061 3787 ft 11 kts 352°
2026-04-26 13:27 0.04864 32.44034 3780 ft 10 kts 312°
2026-04-26 13:27 0.04940 32.44000 3777 ft 18 kts 360°
2026-04-26 13:28 0.05062 32.43986 3773 ft 18 kts 352°
2026-04-26 13:28 0.05183 32.43968 3776 ft 16 kts 352°
2026-04-26 13:28 0.05273 32.43950 3787 ft 11 kts 335°
2026-04-26 13:28 0.05328 32.43897 3785 ft 11 kts 303°
2026-04-26 13:29 0.05369 32.43834 3786 ft 11 kts 303°
2026-04-26 13:29 0.05395 32.43793 3785 ft 10 kts 303°
2026-04-26 13:29 0.05460 32.43713 3786 ft 15 kts 324°
2026-04-26 13:29 0.05480 32.43641 3788 ft 7 kts 227°
2026-04-26 13:30 0.05445 32.43637 3785 ft 3 kts 170°
2026-04-26 13:30 0.05398 32.43644 3783 ft 26 kts 172°
2026-04-26 13:30 0.04972 32.43702 3778 ft 96 kts 172°
2026-04-26 13:30 0.04105 32.43822 3783 ft 154 kts 171°
2026-04-26 13:31 0.02942 32.43983 4152 ft 174 kts 172°
2026-04-26 13:31 0.01754 32.44156 4992 ft 174 kts 173°
2026-04-26 13:31 0.00557 32.44326 5684 ft 179 kts 173°
2026-04-26 13:31 -0.00773 32.44515 5915 ft 206 kts 172°
2026-04-26 13:32 -0.02273 32.44725 6096 ft 229 kts 172°
2026-04-26 13:32 -0.03914 32.44951 6316 ft 246 kts 172°
2026-04-26 13:32 -0.05631 32.45186 6746 ft 252 kts 172°
2026-04-26 13:32 -0.07380 32.45424 7208 ft 255 kts 172°
2026-04-26 13:33 -0.09149 32.45664 7666 ft 259 kts 172°
2026-04-26 13:33 -0.10888 32.46205 7969 ft 272 kts 147°
2026-04-26 13:33 -0.12166 32.47634 8355 ft 285 kts 117°
2026-04-26 13:33 -0.12784 32.49525 9090 ft 288 kts 102°
2026-04-26 13:34 -0.13143 32.51496 9901 ft 289 kts 100°
2026-04-26 13:34 -0.13471 32.53513 10359 ft 304 kts 99°
2026-04-26 13:34 -0.13823 32.55678 10583 ft 324 kts 99°
2026-04-26 13:34 -0.13943 32.56403 10729 ft 328 kts 99°
2026-04-26 13:35 -0.14475 32.59541 10932 ft 356 kts 100°
2026-04-26 13:35 -0.14907 32.62022 11257 ft 367 kts 100°
2026-04-26 13:35 -0.15353 32.64551 11823 ft 371 kts 100°
2026-04-26 13:35 -0.15804 32.67092 12476 ft 372 kts 100°
2026-04-26 13:36 -0.16259 32.69647 13119 ft 375 kts 100°
2026-04-26 13:36 -0.16717 32.72219 13753 ft 378 kts 100°
2026-04-26 13:36 -0.17167 32.74815 14311 ft 381 kts 99°
2026-04-26 13:36 -0.17660 32.78304 15033 ft 386 kts 97°
2026-04-26 13:37 -0.17891 32.80105 15394 ft 388 kts 97°
2026-04-26 13:37 -0.18230 32.82794 15936 ft 392 kts 97°
2026-04-26 13:37 -0.18573 32.85502 16463 ft 395 kts 97°
2026-04-26 13:37 -0.18925 32.88235 16983 ft 399 kts 97°
2026-04-26 13:38 -0.19286 32.90995 17487 ft 402 kts 97°
2026-04-26 13:38 -0.19652 32.93772 17986 ft 405 kts 97°
2026-04-26 13:38 -0.20024 32.96577 18428 ft 409 kts 97°
2026-04-26 13:38 -0.20401 32.99405 18852 ft 411 kts 97°
2026-04-26 13:39 -0.20779 33.02245 19275 ft 414 kts 97°
2026-04-26 13:39 -0.21155 33.05068 19679 ft 417 kts 97°
2026-04-26 13:39 -0.21539 33.07944 20087 ft 419 kts 97°
2026-04-26 13:39 -0.21929 33.10878 20489 ft 422 kts 97°
2026-04-26 13:40 -0.22313 33.13755 20868 ft 425 kts 97°
2026-04-26 13:40 -0.22703 33.16688 21251 ft 427 kts 97°
2026-04-26 13:40 -0.23096 33.19631 21664 ft 428 kts 97°
2026-04-26 13:40 -0.23490 33.22590 22044 ft 431 kts 97°
2026-04-26 13:41 -0.23886 33.25566 22390 ft 433 kts 97°
2026-04-26 13:41 -0.24284 33.28557 22729 ft 436 kts 97°
2026-04-26 13:41 -0.24684 33.31562 23067 ft 438 kts 97°
2026-04-26 13:41 -0.25087 33.34588 23401 ft 440 kts 97°
2026-04-26 13:42 -0.25492 33.37626 23682 ft 442 kts 97°
2026-04-26 13:42 -0.25898 33.40679 23951 ft 444 kts 97°
2026-04-26 13:42 -0.26306 33.43743 24218 ft 446 kts 97°
2026-04-26 13:42 -0.26733 33.46819 24486 ft 448 kts 99°
2026-04-26 13:43 -0.27504 33.49841 24719 ft 451 kts 107°
2026-04-26 13:43 -0.28505 33.52812 24979 ft 452 kts 108°
2026-04-26 13:43 -0.29564 33.55778 25224 ft 454 kts 109°
2026-04-26 13:43 -0.30626 33.58756 25458 ft 456 kts 108°
2026-04-26 13:44 -0.31670 33.61748 25691 ft 458 kts 108°
2026-04-26 13:44 -0.32701 33.64773 25928 ft 459 kts 108°
2026-04-26 13:44 -0.33717 33.67804 26159 ft 461 kts 107°
2026-04-26 13:44 -0.34728 33.70847 26399 ft 463 kts 107°
2026-04-26 13:45 -0.35741 33.73907 26613 ft 464 kts 107°
2026-04-26 13:45 -0.36755 33.76971 26828 ft 466 kts 107°
2026-04-26 13:45 -0.37775 33.80048 27036 ft 467 kts 107°
2026-04-26 13:45 -0.38798 33.83136 27239 ft 469 kts 107°
2026-04-26 13:46 -0.39827 33.86235 27443 ft 471 kts 107°
2026-04-26 13:46 -0.40860 33.89347 27657 ft 472 kts 107°
2026-04-26 13:46 -0.41895 33.92464 27838 ft 474 kts 107°
2026-04-26 13:46 -0.42933 33.95592 28028 ft 475 kts 107°
2026-04-26 13:47 -0.43949 33.98733 28224 ft 476 kts 106°
2026-04-26 13:47 -0.44862 34.01910 28433 ft 477 kts 104°
2026-04-26 13:47 -0.45722 34.05113 28603 ft 478 kts 104°
2026-04-26 13:47 -0.46570 34.08330 28769 ft 480 kts 104°
2026-04-26 13:48 -0.47411 34.11505 28926 ft 481 kts 104°
2026-04-26 13:48 -0.48293 34.14785 29101 ft 482 kts 104°
2026-04-26 13:48 -0.49176 34.18027 29255 ft 483 kts 104°
2026-04-26 13:48 -0.50055 34.21226 29394 ft 484 kts 104°
2026-04-26 13:49 -0.50950 34.24470 29537 ft 485 kts 104°
2026-04-26 13:49 -0.51847 34.27720 29658 ft 486 kts 104°
2026-04-26 13:49 -0.52758 34.31020 29755 ft 487 kts 104°
2026-04-26 13:50 -0.54546 34.37506 29930 ft 488 kts 104°
2026-04-26 13:50 -0.56348 34.44049 30059 ft 489 kts 104°
2026-04-26 13:51 -0.58156 34.50612 30160 ft 491 kts 104°
2026-04-26 13:51 -0.59968 34.57190 30246 ft 491 kts 104°
2026-04-26 13:52 -0.61848 34.63759 30354 ft 492 kts 105°
2026-04-26 13:52 -0.62827 34.67017 30704 ft 483 kts 106°
2026-04-26 13:52 -0.63783 34.70174 30948 ft 469 kts 106°
2026-04-26 13:52 -0.64710 34.73244 30954 ft 456 kts 106°
2026-04-26 13:53 -0.65617 34.76263 30981 ft 452 kts 105°
2026-04-26 13:53 -0.67410 34.82270 31000 ft 451 kts 105°
2026-04-26 13:54 -0.69198 34.88283 31013 ft 452 kts 105°
2026-04-26 13:54 -0.70991 34.94312 31019 ft 453 kts 105°
2026-04-26 13:55 -0.73381 35.02344 31016 ft 453 kts 105°
2026-04-26 13:56 -0.76379 35.12421 31027 ft 453 kts 105°
2026-04-26 13:56 -0.78173 35.18453 31041 ft 453 kts 105°
2026-04-26 13:57 -0.79957 35.24450 31041 ft 453 kts 105°
2026-04-26 13:57 -0.81750 35.30477 31052 ft 453 kts 105°
2026-04-26 13:58 -0.83553 35.36511 31065 ft 453 kts 107°
2026-04-26 13:58 -0.85929 35.42334 31062 ft 449 kts 113°
2026-04-26 13:58 -0.87204 35.45139 30783 ft 439 kts 113°
2026-04-26 13:59 -0.88464 35.47889 30477 ft 432 kts 113°
2026-04-26 13:59 -0.89700 35.50607 30072 ft 428 kts 113°
2026-04-26 13:59 -0.90913 35.53301 29609 ft 423 kts 113°
2026-04-26 14:00 -0.94439 35.61242 28306 ft 410 kts 112°
2026-04-26 14:00 -0.95581 35.63829 27892 ft 406 kts 112°
2026-04-26 14:00 -0.96333 35.65533 27626 ft 403 kts 112°
2026-04-26 14:01 -0.97836 35.68942 27083 ft 398 kts 112°
2026-04-26 14:01 -0.98946 35.71459 26669 ft 394 kts 112°
2026-04-26 14:01 -1.00047 35.73955 26259 ft 391 kts 112°
2026-04-26 14:01 -1.01139 35.76432 25880 ft 388 kts 112°
2026-04-26 14:02 -1.02227 35.78897 25468 ft 386 kts 112°
2026-04-26 14:02 -1.03304 35.81338 25070 ft 383 kts 112°
2026-04-26 14:02 -1.04378 35.83774 24664 ft 382 kts 112°
2026-04-26 14:02 -1.05445 35.86193 24268 ft 380 kts 112°
2026-04-26 14:03 -1.06508 35.88603 23873 ft 378 kts 112°
2026-04-26 14:03 -1.07566 35.90999 23434 ft 376 kts 112°
2026-04-26 14:03 -1.08617 35.93383 23009 ft 373 kts 112°
2026-04-26 14:03 -1.09646 35.95715 22619 ft 370 kts 112°
2026-04-26 14:04 -1.10676 35.98050 22221 ft 366 kts 112°
2026-04-26 14:04 -1.11700 36.00372 21823 ft 363 kts 112°
2026-04-26 14:04 -1.12715 36.02672 21436 ft 360 kts 112°
2026-04-26 14:04 -1.13721 36.04952 21066 ft 357 kts 112°
2026-04-26 14:05 -1.14718 36.07213 20697 ft 354 kts 112°
2026-04-26 14:05 -1.15707 36.09457 20333 ft 352 kts 112°
2026-04-26 14:05 -1.16693 36.11692 19961 ft 350 kts 112°
2026-04-26 14:05 -1.17671 36.13910 19603 ft 348 kts 112°
2026-04-26 14:06 -1.18644 36.16115 19226 ft 346 kts 112°
2026-04-26 14:06 -1.19613 36.18315 18849 ft 345 kts 112°
2026-04-26 14:06 -1.20581 36.20510 18492 ft 344 kts 112°
2026-04-26 14:06 -1.21543 36.22690 18077 ft 343 kts 112°
2026-04-26 14:07 -1.22501 36.24864 17684 ft 340 kts 112°
2026-04-26 14:07 -1.23451 36.27017 17290 ft 337 kts 112°
2026-04-26 14:07 -1.24392 36.29152 16950 ft 335 kts 112°
2026-04-26 14:07 -1.25334 36.31288 16589 ft 336 kts 113°
2026-04-26 14:08 -1.26278 36.33429 16205 ft 336 kts 113°
2026-04-26 14:08 -1.27221 36.35569 15788 ft 336 kts 113°
2026-04-26 14:08 -1.28163 36.37706 15374 ft 336 kts 113°
2026-04-26 14:08 -1.29103 36.39837 15010 ft 333 kts 113°
2026-04-26 14:09 -1.30034 36.41949 14651 ft 331 kts 113°
2026-04-26 14:09 -1.30959 36.44048 14302 ft 329 kts 113°
2026-04-26 14:09 -1.31878 36.46132 13934 ft 327 kts 114°
2026-04-26 14:09 -1.32792 36.48207 13526 ft 325 kts 114°
2026-04-26 14:10 -1.33701 36.50269 13164 ft 323 kts 114°
2026-04-26 14:10 -1.34600 36.52308 12801 ft 319 kts 113°
2026-04-26 14:10 -1.35489 36.54325 12440 ft 315 kts 113°
2026-04-26 14:10 -1.36366 36.56316 12129 ft 311 kts 114°
2026-04-26 14:11 -1.38096 36.60240 11458 ft 306 kts 114°
2026-04-26 14:11 -1.38952 36.62180 11130 ft 304 kts 114°
2026-04-26 14:11 -1.40113 36.63929 10752 ft 306 kts 136°
2026-04-26 14:12 -1.41862 36.65133 10378 ft 306 kts 148°
2026-04-26 14:12 -1.43706 36.66157 10190 ft 300 kts 149°
2026-04-26 14:12 -1.45479 36.67175 10013 ft 286 kts 142°
2026-04-26 14:12 -1.46718 36.68660 9719 ft 276 kts 110°
2026-04-26 14:13 -1.46311 36.72259 9371 ft 264 kts 66°
2026-04-26 14:13 -1.45483 36.73877 9239 ft 258 kts 62°
2026-04-26 14:13 -1.44551 36.75385 9092 ft 253 kts 57°
2026-04-26 14:14 -1.43532 36.76824 8795 ft 252 kts 55°
2026-04-26 14:14 -1.42511 36.78215 8477 ft 243 kts 56°
2026-04-26 14:14 -1.41535 36.79550 8176 ft 233 kts 56°
2026-04-26 14:14 -1.40609 36.80824 7899 ft 222 kts 55°
2026-04-26 14:15 -1.39724 36.82044 7599 ft 211 kts 56°
2026-04-26 14:15 -1.38903 36.83174 7348 ft 197 kts 56°
2026-04-26 14:15 -1.38125 36.84245 7125 ft 184 kts 56°
2026-04-26 14:15 -1.37396 36.85250 6909 ft 173 kts 56°
2026-04-26 14:16 -1.36717 36.86184 6742 ft 158 kts 57°
2026-04-26 14:16 -1.36095 36.87044 6552 ft 150 kts 57°
2026-04-26 14:16 -1.35505 36.87903 6272 ft 152 kts 57°
2026-04-26 14:16 -1.34876 36.88756 6074 ft 154 kts 54°
2026-04-26 14:17 -1.34248 36.89605 5870 ft 151 kts 57°
2026-04-26 14:17 -1.33628 36.90441 5652 ft 151 kts 58°
2026-04-26 14:17 -1.33014 36.91287 5467 ft 148 kts 57°
2026-04-26 14:17 -1.32423 36.92096 5322 ft 136 kts 57°
2026-04-26 14:18 -1.31946 36.92751 5312 ft 96 kts 53°
2026-04-26 14:18 -1.31640 36.93166 5306 ft 49 kts 53°
2026-04-26 14:18 -1.31599 36.93351 5305 ft 23 kts 139°
2026-04-26 14:18 -1.31713 36.93435 5304 ft 18 kts 144°
2026-04-26 14:19 -1.31787 36.93480 5310 ft 12 kts 170°
2026-04-26 14:19 -1.31853 36.93434 5307 ft 13 kts 234°
2026-04-26 14:19 -1.31907 36.93359 5311 ft 14 kts 234°
2026-04-26 14:19 -1.31962 36.93284 5310 ft 13 kts 234°
2026-04-26 14:20 -1.32014 36.93212 5312 ft 13 kts 233°
2026-04-26 14:20 -1.32066 36.93142 5314 ft 12 kts 234°
2026-04-26 14:20 -1.32116 36.93074 5310 ft 12 kts 233°
2026-04-26 14:20 -1.32164 36.93008 5320 ft 12 kts 234°
2026-04-26 14:21 -1.32213 36.92940 5320 ft 14 kts 233°
2026-04-26 14:21 -1.32284 36.92844 5317 ft 16 kts 233°
2026-04-26 14:21 -1.32352 36.92751 5321 ft 18 kts 233°
2026-04-26 14:21 -1.32432 36.92641 5323 ft 17 kts 232°
2026-04-26 14:22 -1.32497 36.92554 5323 ft 15 kts 233°
2026-04-26 14:22 -1.32555 36.92474 5323 ft 14 kts 234°
2026-04-26 14:22 -1.32607 36.92403 5323 ft 8 kts 233°
2026-04-26 14:22 -1.32614 36.92394 5324 ft 0 kts 234°
2026-04-26 14:23 -1.32638 36.92360 5322 ft 10 kts 233°
2026-04-26 14:23 -1.32699 36.92359 5317 ft 9 kts 150°
2026-04-26 14:24 -1.32732 36.92384 5322 ft 9 kts 142°
2026-04-26 14:24 -1.32793 36.92374 5315 ft 10 kts 231°
2026-04-26 14:24 -1.32833 36.92317 5323 ft 10 kts 229°
2026-04-26 14:24 -1.32901 36.92260 5322 ft 15 kts 211°
2026-04-26 14:25 -1.32991 36.92223 5321 ft 11 kts 191°
2026-04-26 14:25 -1.33057 36.92217 5316 ft 10 kts 179°
2026-04-26 14:25 -1.33119 36.92230 5323 ft 7 kts 137°
2026-04-26 14:25 -1.33118 36.92276 5323 ft 4 kts 77°
2026-04-26 14:26 -1.33113 36.92299 5319 ft 2 kts 78°
2026-04-26 14:26 -1.33111 36.92310 5318 ft 1 kts 78°
2026-04-26 14:26 -1.33110 36.92314 5319 ft 0 kts 78°